User: anonymous   Login
Location: Caltech
(34.1382°N, 118.1253°W)
Time: 10:52:19
(UTC-07:00)
Language:

Saudisat 1A - Orbit

View from above orbital plane
View from above orbital plane
View from above satellite
View from above satellite

Ground track
Ground track

The orbit data is extracted from the following two-line orbital elements,

1 26546U 00057B   15090.83918560  .00002783  00000-0  30753-3 0  9991
2 26546 064.5579 343.6644 0023535 321.6872 038.2564 14.89267013786211
Epoch (UTC): 31 March 2015 20:08:25
Eccentricity: 0.0023535
inclination: 64.5579°
perigee height: 584 km
apogee height: 616 km
right ascension of ascending node: 343.6644°
argument of perigee: 321.6872°
revolutions per day: 14.89267013
mean anomaly at epoch: 38.2564°
orbit number at epoch: 78621

The dashed part of the orbit path shows where the satellite is in the earth's shadow,  

DLR